Location: C.E.K. Mees Observatory
(42.7003°N, 77.4088°W)
Time: 03:54:30
(UTC-04:00)

Envisat - Pass Details

Date: 07 October 2017
Orbit: 764 x 766 km, 98.2° (Epoch: 16 October)

Event Time Altitude Azimuth Distance (km) Brightness Sun altitude
Exits shadow 21:18:24 57° 247° (WSW) 894 3.4 -29.5°
Maximum altitude 21:18:37 58° 259° (W) 889 3.4 -29.5°
Drops below altitude 10° 21:23:38 10° 339° (NNW) 2,309 5.9 -30.4°
Sets 21:26:00 0° 343° (NNW) 3,240 6.7 -30.8°
